This is the latest recevied weather packets stored in our database for station/object EA2FBA-10. If no packets are shown the sender has not sent any weather packets the latest 10 day(s).
| Time | Temp. | Humidity | Pressure | Rain* | Wind** | Luminosity | Snow |
|---|---|---|---|---|---|---|---|
| 1788004513 | 23.89° C | 37% | 956.8 hPa | - | - | - | - |
| 1788003613 | 23.33° C | 40% | 956.8 hPa | - | - | - | - |
| 1788002723 | 22.78° C | 39% | 956.8 hPa | - | - | - | - |
| 1788002713 | 22.78° C | 39% | 956.8 hPa | - | - | - | - |
| 1788001822 | 22.78° C | 40% | 956.9 hPa | - | - | - | - |
| 1788001812 | 22.78° C | 40% | 956.9 hPa | - | - | - | - |
| 1788000912 | 22.78° C | 42% | 957.1 hPa | - | - | - | - |
| 1788000012 | 22.22° C | 44% | 957.3 hPa | - | - | - | - |
| 1787999112 | 22.22° C | 45% | 957.4 hPa | - | - | - | - |
| 1787998221 | 21.67° C | 49% | 957.4 hPa | - | - | - | - |
| 1787998212 | 21.67° C | 49% | 957.4 hPa | - | - | - | - |
| 1787997321 | 20.56° C | 52% | 957.4 hPa | - | - | - | - |
| 1787997312 | 20.56° C | 52% | 957.4 hPa | - | - | - | - |
| 1787996421 | 20.56° C | 53% | 957.5 hPa | - | - | - | - |
| 1787996412 | 20.56° C | 53% | 957.5 hPa | - | - | - | - |
| 1787995512 | 20° C | 53% | 957.6 hPa | - | - | - | - |
| 1787994621 | 20° C | 54% | 957.6 hPa | - | - | - | - |
| 1787994612 | 20° C | 54% | 957.6 hPa | - | - | - | - |
| 1787993721 | 19.44° C | 54% | 957.5 hPa | - | - | - | - |
| 1787993711 | 19.44° C | 54% | 957.5 hPa | - | - | - | - |
| 1787992822 | 19.44° C | 54% | 957.5 hPa | - | - | - | - |
| 1787992812 | 19.44° C | 54% | 957.5 hPa | - | - | - | - |
| 1787991911 | 18.89° C | 55% | 957.4 hPa | - | - | - | - |
| 1787991011 | 18.89° C | 56% | 957.4 hPa | - | - | - | - |
| 1787990129 | 18.33° C | 57% | 957.5 hPa | - | - | - | - |
* Rain since midnight (hover to see other rain measurements)
** Current wind speed in m/s (hover to see current wind gust speed)